• In Österreich
  • Länderverzeichnis
  • Für 7 Tage
  • Wassertemperatur
  • Satellitenkarten
  • Wetterkarte
  • News
  • Widgets
  • user-avatar
    Anmelden

    Stündliche Wetter Wien

    Heute, 23 Oktober, Montag

    Zeit Temperatur Niederschläge Wind Luftdruck Luftfeuchtigkeit
    00:00 +8°C° 0,4 mm 5 m/S 741 mmHg 79%
    01:00 +8°C° 0 mm 5 m/S 741 mmHg 82%
    02:00 +8°C° 0,3 mm 5 m/S 740 mmHg 82%
    03:00 +7°C° 0,3 mm 5 m/S 740 mmHg 82%
    04:00 +7°C° 0,3 mm 6 m/S 740 mmHg 83%
    05:00 +7°C° 0,4 mm 6 m/S 740 mmHg 83%
    06:00 +7°C° 0,4 mm 6 m/S 740 mmHg 83%
    07:00 +6°C° 0,4 mm 7 m/S 740 mmHg 83%
    08:00 +8°C° 0,4 mm 7 m/S 740 mmHg 82%
    09:00 +8°C° 0,4 mm 7 m/S 740 mmHg 80%
    10:00 +9°C° 0,4 mm 8 m/S 740 mmHg 78%
    11:00 +9°C° 0,5 mm 8 m/S 740 mmHg 77%
    12:00 +9°C° 0,5 mm 8 m/S 740 mmHg 77%
    13:00 +9°C° 0,5 mm 8 m/S 741 mmHg 76%
    14:00 +9°C° 0,4 mm 8 m/S 741 mmHg 75%
    15:00 +9°C° 0,4 mm 8 m/S 741 mmHg 75%
    16:00 +9°C° 0,4 mm 8 m/S 742 mmHg 75%
    17:00 +9°C° 0,4 mm 8 m/S 742 mmHg 76%
    18:00 +9°C° 0,4 mm 7 m/S 742 mmHg 78%
    19:00 +8°C° 0,4 mm 7 m/S 743 mmHg 79%
    20:00 +8°C° 0,2 mm 7 m/S 743 mmHg 79%
    21:00 +8°C° 0,2 mm 7 m/S 744 mmHg 80%
    22:00 +8°C° 0,2 mm 7 m/S 744 mmHg 80%
    23:00 +8°C° 0 mm 7 m/S 745 mmHg 80%

    Morgen, 24 Oktober, Dienstag

    Zeit Temperatur Niederschläge Wind Luftdruck Luftfeuchtigkeit
    00:00 +8°C° 0 mm 7 m/S 745 mmHg 81%
    01:00 +8°C° 0 mm 7 m/S 746 mmHg 81%
    02:00 +7°C° 0 mm 6 m/S 746 mmHg 82%
    03:00 +7°C° 0 mm 6 m/S 746 mmHg 83%
    04:00 +7°C° 0 mm 6 m/S 746 mmHg 84%
    05:00 +7°C° 0 mm 6 m/S 747 mmHg 84%
    06:00 +7°C° 0 mm 6 m/S 747 mmHg 85%
    07:00 +7°C° 0 mm 6 m/S 748 mmHg 85%
    08:00 +8°C° 0 mm 6 m/S 748 mmHg 81%
    09:00 +9°C° 0 mm 6 m/S 748 mmHg 77%
    10:00 +10°C° 0 mm 6 m/S 749 mmHg 72%
    11:00 +11°C° 0 mm 6 m/S 749 mmHg 70%
    12:00 +11°C° 0 mm 6 m/S 749 mmHg 68%
    13:00 +13°C° 0 mm 6 m/S 749 mmHg 66%
    14:00 +13°C° 0 mm 5 m/S 749 mmHg 67%
    15:00 +12°C° 0 mm 5 m/S 749 mmHg 69%
    16:00 +12°C° 0 mm 4 m/S 749 mmHg 70%
    17:00 +11°C° 0 mm 4 m/S 749 mmHg 74%
    18:00 +10°C° 0 mm 3 m/S 750 mmHg 77%
    19:00 +9°C° 0 mm 3 m/S 750 mmHg 81%
    20:00 +9°C° 0 mm 3 m/S 750 mmHg 82%
    21:00 +9°C° 0 mm 3 m/S 751 mmHg 83%
    22:00 +9°C° 0 mm 2 m/S 751 mmHg 84%
    23:00 +8°C° 0 mm 2 m/S 751 mmHg 86%

    übermorgen, 25 Oktober, Mittwoch

    Zeit Temperatur Niederschläge Wind Luftdruck Luftfeuchtigkeit
    00:00 +8°C° 0 mm 2 m/S 751 mmHg 87%
    01:00 +8°C° 0 mm 2 m/S 751 mmHg 89%
    02:00 +7°C° 0 mm 2 m/S 751 mmHg 89%
    03:00 +7°C° 0 mm 2 m/S 751 mmHg 90%
    04:00 +8°C° 0 mm 1 m/S 750 mmHg 91%
    05:00 +8°C° 0 mm 1 m/S 751 mmHg 90%
    06:00 +8°C° 0 mm 1 m/S 751 mmHg 90%
    07:00 +8°C° 0 mm 1 m/S 751 mmHg 90%
    08:00 +10°C° 0 mm 1 m/S 751 mmHg 83%
    09:00 +12°C° 0 mm 1 m/S 751 mmHg 76%
    10:00 +14°C° 0 mm 1 m/S 751 mmHg 69%
    11:00 +15°C° 0 mm 1 m/S 751 mmHg 66%
    12:00 +16°C° 0 mm 1 m/S 751 mmHg 63%
    13:00 +19°C° 0 mm 1 m/S 750 mmHg 60%
    14:00 +18°C° 0 mm 1 m/S 750 mmHg 64%
    15:00 +18°C° 0 mm 1 m/S 750 mmHg 67%
    16:00 +16°C° 0 mm 1 m/S 750 mmHg 70%
    17:00 +15°C° 0 mm 1 m/S 750 mmHg 74%
    18:00 +14°C° 0 mm 2 m/S 751 mmHg 78%
    19:00 +13°C° 0 mm 2 m/S 751 mmHg 82%
    20:00 +13°C° 0 mm 2 m/S 751 mmHg 82%
    21:00 +12°C° 0 mm 1 m/S 751 mmHg 83%
    22:00 +12°C° 0 mm 1 m/S 751 mmHg 83%
    23:00 +12°C° 0 mm 1 m/S 752 mmHg 83%

    26 Oktober, Donnerstag

    Zeit Temperatur Niederschläge Wind Luftdruck Luftfeuchtigkeit
    00:00 +12°C° 0 mm 1 m/S 752 mmHg 83%
    01:00 +12°C° 0 mm 1 m/S 752 mmHg 84%
    02:00 +12°C° 0 mm 1 m/S 752 mmHg 84%
    03:00 +12°C° 0 mm 1 m/S 751 mmHg 85%
    04:00 +11°C° 0 mm 1 m/S 751 mmHg 85%
    05:00 +11°C° 0 mm 1 m/S 751 mmHg 85%
    06:00 +11°C° 0 mm 1 m/S 751 mmHg 85%
    07:00 +11°C° 0 mm 1 m/S 751 mmHg 85%
    08:00 +13°C° 0 mm 1 m/S 751 mmHg 78%
    09:00 +15°C° 0 mm 1 m/S 751 mmHg 70%
    10:00 +18°C° 0 mm 1 m/S 751 mmHg 63%
    11:00 +19°C° 0 mm 1 m/S 751 mmHg 59%
    12:00 +19°C° 0 mm 2 m/S 750 mmHg 56%
    13:00 +20°C° 0 mm 2 m/S 750 mmHg 52%
    14:00 +20°C° 0 mm 2 m/S 750 mmHg 56%
    15:00 +19°C° 0 mm 2 m/S 749 mmHg 60%
    16:00 +18°C° 0 mm 2 m/S 749 mmHg 64%
    17:00 +17°C° 0 mm 2 m/S 749 mmHg 67%
    18:00 +16°C° 0 mm 2 m/S 749 mmHg 71%
    19:00 +15°C° 0 mm 2 m/S 749 mmHg 74%
    20:00 +15°C° 0 mm 2 m/S 749 mmHg 74%
    21:00 +14°C° 0 mm 2 m/S 749 mmHg 75%
    22:00 +14°C° 0 mm 2 m/S 748 mmHg 75%
    23:00 +13°C° 0 mm 3 m/S 748 mmHg 75%

    27 Oktober, Freitag

    Zeit Temperatur Niederschläge Wind Luftdruck Luftfeuchtigkeit
    00:00 +13°C° 0 mm 3 m/S 748 mmHg 74%
    01:00 +13°C° 0 mm 3 m/S 748 mmHg 74%
    02:00 +13°C° 0 mm 3 m/S 747 mmHg 74%
    03:00 +13°C° 0 mm 3 m/S 747 mmHg 74%
    04:00 +13°C° 0 mm 3 m/S 746 mmHg 73%
    05:00 +13°C° 0 mm 3 m/S 746 mmHg 73%
    06:00 +13°C° 0 mm 3 m/S 746 mmHg 73%
    07:00 +13°C° 0 mm 4 m/S 746 mmHg 73%
    08:00 +14°C° 0 mm 4 m/S 745 mmHg 70%
    09:00 +15°C° 0 mm 5 m/S 745 mmHg 67%
    10:00 +16°C° 0 mm 6 m/S 744 mmHg 63%
    11:00 +16°C° 0,1 mm 7 m/S 744 mmHg 63%
    12:00 +16°C° 0,1 mm 7 m/S 743 mmHg 62%
    13:00 +16°C° 0,1 mm 8 m/S 743 mmHg 61%
    14:00 +15°C° 0,8 mm 7 m/S 743 mmHg 67%
    15:00 +14°C° 0,8 mm 7 m/S 743 mmHg 72%
    16:00 +11°C° 0,8 mm 6 m/S 743 mmHg 78%
    17:00 +11°C° 0,2 mm 6 m/S 744 mmHg 77%
    18:00 +10°C° 0,2 mm 6 m/S 744 mmHg 76%
    19:00 +9°C° 0,2 mm 6 m/S 745 mmHg 75%
    20:00 +9°C° 0 mm 6 m/S 745 mmHg 76%
    21:00 +9°C° 0 mm 6 m/S 745 mmHg 76%
    22:00 +8°C° 0 mm 6 m/S 745 mmHg 77%
    23:00 +8°C° 0 mm 6 m/S 745 mmHg 77%

    28 Oktober, Samstag

    Zeit Temperatur Niederschläge Wind Luftdruck Luftfeuchtigkeit
    00:00 +8°C° 0 mm 6 m/S 745 mmHg 76%
    01:00 +8°C° 0 mm 6 m/S 745 mmHg 76%
    02:00 +8°C° 0 mm 6 m/S 745 mmHg 75%
    03:00 +8°C° 0 mm 6 m/S 745 mmHg 74%
    04:00 +6°C° 0 mm 7 m/S 744 mmHg 74%
    05:00 +7°C° 0 mm 6 m/S 744 mmHg 73%
    06:00 +7°C° 0 mm 6 m/S 744 mmHg 73%
    07:00 +7°C° 0 mm 6 m/S 744 mmHg 73%
    08:00 +8°C° 0 mm 7 m/S 744 mmHg 70%
    09:00 +9°C° 0 mm 7 m/S 744 mmHg 66%
    10:00 +9°C° 0 mm 8 m/S 744 mmHg 63%
    11:00 +9°C° 0,2 mm 8 m/S 743 mmHg 63%
    12:00 +9°C° 0,2 mm 8 m/S 742 mmHg 64%
    13:00 +8°C° 0,2 mm 9 m/S 741 mmHg 65%
    14:00 +8°C° 0,5 mm 9 m/S 741 mmHg 66%
    15:00 +8°C° 0,5 mm 9 m/S 740 mmHg 68%
    16:00 +7°C° 0,5 mm 9 m/S 740 mmHg 69%
    17:00 +7°C° 0,3 mm 10 m/S 739 mmHg 69%
    18:00 +7°C° 0,3 mm 10 m/S 739 mmHg 70%
    19:00 +8°C° 0,3 mm 11 m/S 739 mmHg 70%
    20:00 +8°C° 0,3 mm 11 m/S 739 mmHg 71%
    21:00 +8°C° 0,3 mm 11 m/S 738 mmHg 71%
    22:00 +8°C° 0,3 mm 11 m/S 738 mmHg 71%
    23:00 +8°C° 0,7 mm 10 m/S 738 mmHg 72%

    29 Oktober, Sonntag

    Zeit Temperatur Niederschläge Wind Luftdruck Luftfeuchtigkeit
    00:00 +8°C° 0,7 mm 10 m/S 738 mmHg 72%
    01:00 +8°C° 0,7 mm 10 m/S 738 mmHg 72%
    02:00 +7°C° 0,4 mm 9 m/S 739 mmHg 72%
    03:00 +7°C° 0,4 mm 9 m/S 739 mmHg 72%
    04:00 +7°C° 0,4 mm 8 m/S 740 mmHg 71%
    05:00 +6°C° 0,1 mm 8 m/S 740 mmHg 71%
    06:00 +6°C° 0,1 mm 8 m/S 741 mmHg 71%
    07:00 +6°C° 0,1 mm 8 m/S 741 mmHg 71%
    08:00 +6°C° 0 mm 9 m/S 742 mmHg 67%
    09:00 +7°C° 0 mm 10 m/S 742 mmHg 62%
    10:00 +7°C° 0 mm 10 m/S 743 mmHg 57%
    11:00 +8°C° 0 mm 10 m/S 743 mmHg 56%
    12:00 +8°C° 0 mm 10 m/S 743 mmHg 54%
    13:00 +8°C° 0 mm 9 m/S 743 mmHg 53%
    14:00 +9°C° 0 mm 8 m/S 744 mmHg 54%
    15:00 +9°C° 0 mm 7 m/S 744 mmHg 56%
    16:00 +8°C° 0 mm 7 m/S 744 mmHg 57%
    17:00 +8°C° 0 mm 6 m/S 744 mmHg 60%
    18:00 +7°C° 0 mm 6 m/S 745 mmHg 63%
    19:00 +7°C° 0 mm 5 m/S 745 mmHg 66%
    20:00 +6°C° 0 mm 5 m/S 745 mmHg 69%
    21:00 +6°C° 0 mm 4 m/S 746 mmHg 72%
    22:00 +6°C° 0 mm 4 m/S 746 mmHg 75%
    23:00 +5°C° 0 mm 4 m/S 746 mmHg 78%
    Mehr zeigen